Khon Kaen, Thailand

4:16 PM ICT on February 21, 2017 (GMT +0700)
Khon Kaen

Weather History for VTUK - October, 2013

Change the Weather History Date:

Tuesday, October 1, 2013

  Actual Average Record
Temperature  
Mean Temperature 78 °F -  
Max Temperature 85 °F 89 °F - ()
Min Temperature 72 °F 72 °F - ()
Cooling Degree Days 14    
Growing Degree Days 28 (Base 50)    
Moisture  
Dew Point 76 °F    
Average Humidity 91    
Maximum Humidity 100    
Minimum Humidity 65    
Precipitation  
Precipitation 0.04 in 0.14 in - ()
Sea Level Pressure  
Sea Level Pressure 29.76 in    
Wind  
Wind Speed 3 mph ()    
Max Wind Speed 8 mph    
Max Gust Speed -    
Visibility 5.9 miles    
Events Rain    
T = Trace of Precipitation, MM = Missing Value Source: Averaged Metar Reports

Daily Weather History Graph

Daily Weather History Graph

Search for Another Location

Airport or City:

Trip Planner

Search our weather history database for the weather conditions in past years. The results will help you decide how hot, cold, wet, or windy it might be!

Date:

Astronomy

Oct. 01, 2013 Rise Set
Actual Time 5:58 AM ICT 5:57 PM ICT
Civil Twilight 5:37 AM ICT 6:19 PM ICT
Nautical Twilight 5:12 AM ICT 6:44 PM ICT
Astronomical Twilight 4:47 AM ICT 7:09 PM ICT
Moon 2:32 AM ICT (10/1) 3:18 PM ICT (10/1)
Length of Visible Light 12h 42m
Length of Day
11h 59m
Waning Crescent, 15% of the Moon is Illuminated
Oct 1
Waning Crescent
Oct 5
New
Oct 12
First Quarter
Oct 19
Full
Oct 27
Last Quarter

Hourly Weather History & Observations

Time (ICT) Temp. Heat Index Dew Point Humidity Pressure Visibility Wind Dir Wind Speed Gust Speed Precip Events Conditions
12:00 AM 78.8 °F - 78.8 °F 100% 29.71 in 5.0 mi West 2.3 mph - N/A Rain Rain
1:00 AM 79 °F - 76 °F 89% 29.67 in 5 mi West 2.3 mph - - Rain Light Rain
1:00 AM 77.0 °F - 77.0 °F 100% 29.68 in 5.0 mi WSW 4.6 mph - N/A Rain Rain
2:00 AM 77.0 °F - 77.0 °F 100% 29.65 in 5.0 mi WSW 3.5 mph - N/A Rain Rain
3:00 AM 77.0 °F - 77.0 °F 100% 29.68 in 5.0 mi West 8.1 mph - N/A Rain Rain
5:00 AM 73.4 °F - 73.4 °F 100% 29.68 in 6.2 mi NNE 3.5 mph - N/A   Overcast
6:00 AM 73.4 °F - 73.4 °F 100% 29.71 in 4.3 mi North 3.5 mph - N/A   Mostly Cloudy
7:00 AM 74 °F - 72 °F 91% 29.75 in 6 mi NW 2.3 mph - -   Partly Cloudy
7:00 AM 73.4 °F - 73.4 °F 100% 29.74 in 6.2 mi NNW 3.5 mph - N/A   Mostly Cloudy
8:00 AM 75.2 °F - 73.4 °F 94% 29.77 in 6.2 mi North 3.5 mph - N/A   Mostly Cloudy
9:00 AM 77.0 °F - 75.2 °F 94% 29.80 in 6.2 mi Variable 2.3 mph - N/A   Mostly Cloudy
10:00 AM 78.8 °F - 75.2 °F 89% 29.83 in 6.2 mi East 4.6 mph - N/A   Mostly Cloudy
11:00 AM 80.6 °F 86.2 °F 75.2 °F 84% 29.80 in 6.2 mi Variable 3.5 mph - N/A   Mostly Cloudy
12:00 PM 82.4 °F 90.9 °F 77.0 °F 84% 29.80 in 6.2 mi ESE 5.8 mph - N/A   Mostly Cloudy
1:00 PM 82 °F - 72 °F 65% 29.75 in 6 mi East 2.3 mph - -   Partly Cloudy
1:00 PM 82.4 °F 89.5 °F 75.2 °F 79% 29.77 in 6.2 mi East 4.6 mph - N/A   Mostly Cloudy
2:00 PM 82.4 °F 89.5 °F 75.2 °F 79% 29.74 in 6.2 mi East 5.8 mph - N/A   Mostly Cloudy
3:00 PM 84.2 °F 94.1 °F 77.0 °F 79% 29.71 in 6.2 mi NE 5.8 mph - N/A   Mostly Cloudy
4:00 PM 82.4 °F 89.5 °F 75.2 °F 79% 29.71 in 6.2 mi ENE 5.8 mph - N/A   Scattered Clouds
5:00 PM 78.8 °F - 77.0 °F 94% 29.74 in 6.2 mi ENE 4.6 mph - N/A   Scattered Clouds
6:00 PM 78.8 °F - 77.0 °F 94% 29.77 in 6.2 mi Variable 2.3 mph - N/A   Mostly Cloudy
7:00 PM 80 °F - 75 °F 81% 29.77 in 6 mi Calm Calm - -   Partly Cloudy
7:00 PM 80.6 °F 87.1 °F 77.0 °F 89% 29.80 in 6.2 mi NE 5.8 mph - N/A   Mostly Cloudy
8:00 PM 78.8 °F - 77.0 °F 94% 29.83 in 6.2 mi North 3.5 mph - N/A   Scattered Clouds
9:00 PM 78.8 °F - 77.0 °F 94% 29.83 in 6.2 mi North 3.5 mph - N/A   Scattered Clouds
10:00 PM 77.0 °F - 77.0 °F 100% 29.86 in - North 4.6 mph - N/A   Clear
11:00 PM 77.0 °F - 77.0 °F 100% 29.86 in - North 2.3 mph - N/A   Clear